www.pogodaiklimat.ru

Погода и климат >> Архив погоды >> Аргентина >> Пресиденсиа-Роке-Саэнс-Пенья


ПОГОДА в Пресиденсиа-Роке-Саэнс-Пеньи

  • Прогноз погоды в Пресиденсиа-Роке-Саэнс-Пеньи
  • Монитор погоды в Пресиденсиа-Роке-Саэнс-Пеньи

АРХИВ ПОГОДЫ в Пресиденсиа-Роке-Саэнс-Пеньи

Время (UTC), дата Ветер
(напр.,м/с)
 
Видим.   Явления Облачность Т
(С)
Тd
(С)
f
(%)
Тe
(С)
Тes
(С)
Комфортность P
(гПа)
Po
(гПа)
Тmin
(С)
Tmax
(С)
R
(мм)
R24
(мм)
S
(см)
09 19.04 В 1 20 км 10/10 750 м
[Sc]
+22.2 +19.9 87 +28 +28 душно 1006.2 995.7
12 19.04 СВ 3 20 км 9/0
[Ac As]
+23.0 +20.1 84 +30 +31 очень
душно
1007.2 996.6 +21.7 +24.2
15 19.04 СВ 5 20 км 6/0
[Ac As]
+28.9 +22.0 66 +37 +41 очень
душно
1007.0 996.5
18 19.04 СВ 4 20 км 9/3 750 м
[Sc Ac As]
+30.4 +24.2 70 +42 +44 опасность
перегрева
1004.2 993.7
21 19.04 В 2 20 км 6/3 750 м
[Cb calv Ac As Cs]
+29.9 +25.5 77 +44 +44 опасность
перегрева
1002.8 992.4
00 20.04 В 2 20 км зарница 6/5 750 м
[Cb cap Ac As]
+27.3 +25.6 90 +40 +40 очень
душно
1003.9 993.4 +23.0 +32.3
03 20.04 В 2 20 км гроза без осадков 10/6 750 м
[Cb cap Ac As]
+26.7 +24.7 89 +38 +38 очень
душно
1004.7 994.2
06 20.04 В 2 20 км зарница {гроза} 10/8 240 м
[Cb cap Ac As]
+25.3 +24.0 93 +35 +35 очень
душно
1004.0 993.6
09 20.04 В 3 3000 м гроза, ливневой дождь туман 10/10 240 м
[Cb cap]
+24.3 +23.7 96 +33 +33 очень
душно
1002.6 992.2
12 20.04 Ю 7
{13}
1000 м сильн. гроза, ливневой дождь 10/8 240 м
[Cb cap As op]
+23.2 +23.2 100 +33 +33 очень
душно
1005.5 995.0 +22.5 +27.3 42
15 20.04 В 3 3000 м гроза, ливневой дождь 10/3 240 м
[Cb cap As op]
+21.1 +21.1 100 +26 +28 душно 1007.0 996.4
18 20.04 С 1 20 км гроза без осадков 9/3 210 м
[Cb cap Ac As Cs]
+23.4 +23.4 100 +33 +38 очень
душно
1004.4 993.8 153
21 20.04 В 1 20 км {гроза} 9/5 240 м
[St Ac As]
+23.8 +23.8 100 +32 +32 очень
душно
1004.8 994.2
00 21.04 Ю 2 20 км {гроза} 9/5 240 м
[St Ac As]
+22.8 +22.8 100 +31 +31 очень
душно
1005.6 995.0 +21.1 +25.0
03 21.04 Ю 2 20 км 10/10 210 м
[St]
+22.9 +22.3 96 +31 +31 очень
душно
1006.4 995.8
06 21.04 Ю 2 5000 м дымка 10/10 210 м
[St]
+22.7 +22.6 99 +31 +31 очень
душно
1005.4 994.8
09 21.04 Ю 3 3000 м гроза, ливневой дождь 10/6 210 м
[Cb cap As op]
+22.1 +22.1 100 +29 +29 очень
душно
1004.6 994.0
12 21.04 Ю 3 4000 м гроза без осадков туман 10/8 210 м
[Cb cap As op]
+22.1 +21.8 98 +29 +29 очень
душно
1006.5 995.8 +21.6 +22.9 22
15 21.04 Ю 3 2000 м слаб. морось {гроза} 10/10 150 м
[St]
+22.3 +22.0 98 +30 +30 очень
душно
1007.6 997.0
18 21.04 штиль 0 50 км слаб. морось {гроза} ?/? +22.9 +22.5 98 +31 +31 очень
душно
1006.3 995.7 3
21 21.04 Ю 4 20 км в посл. час морось 10/10 150 м
[St]
+22.4 +22.1 98 +30 +30 очень
душно
1006.6 996.0
00 22.04 Ю 2 4000 м слаб. морось 10/10 150 м
[St]
+22.2 +21.9 98 +29 +29 очень
душно
1008.1 997.4 +22.1 +23.0 3
03 22.04 Ю 2 20 км {морось} 10/10 150 м
[St]
+22.3 +22.0 98 +30 +30 очень
душно
1008.4 997.8
06 22.04 Ю 2 20 км {морось} 10/10 150 м
[St]
+22.0 +21.7 98 +29 +29 очень
душно
1008.4 997.8 0.0
09 22.04 ЮВ 3 20 км в посл. час морось 10/10 150 м
[St]
+20.6 +20.3 98 +26 +26 душно 1008.1 997.4
12 22.04 В 3 20 км в посл. час морось 10/10 150 м
[St]
+20.7 +20.2 97 +26 +26 душно 1010.2 999.4 +20.0 +22.5 2
15 22.04 В 3 6000 м дымка 10/10 240 м
[St]
+21.5 +20.6 95 +27 +27 душно 1010.5 999.8
18 22.04 Ю 2 4000 м слаб. морось 10/10 150 м
[St Cs]
+21.5 +20.9 96 +27 +27 душно 1009.3 998.6 0.0
21 22.04 Ю 3 2000 м морось туман 10/10 150 м
[St]
+20.8 +20.5 98 +26 +26 душно 1008.8 998.1
00 23.04 Ю 3 20 км {морось} 10/10 150 м
[St]
+20.1 +19.6 97 +24 +24 комфорт 1010.6 999.8 +20.1 +22.0 1
03 23.04 Ю 3 20 км 10/10 210 м
[St]
+20.0 +18.9 93 +24 +24 комфорт 1012.3 1001.6
06 23.04 В 3 20 км 9/6 210 м
[St Ac As]
+19.7 +18.1 90 +23 +23 комфорт 1011.8 1001.0
09 23.04 Ю 2 20 км 9/6 210 м
[St Ac As]
+18.8 +17.3 91 +21 +21 комфорт 1011.5 1000.6
12 23.04 Ю 3 20 км 10/0
[Ac As]
+18.2 +16.6 90 +19 +19 1013.5 1002.6 +18.2 +20.1 1
15 23.04 Ю 2 20 км 10/6 750 м
[Sc Ac As]
+19.6 +16.3 81 +22 +24 комфорт 1014.0 1003.2
18 23.04 Ю 3 20 км 9/6 750 м
[Sc Ac As]
+21.3 +17.5 79 +25 +27 комфорт 1012.3 1001.6
21 23.04 Ю 3 20 км 8/3 750 м
[Sc Ac As]
+23.0 +19.1 79 +29 +29 очень
душно
1011.6 1000.9
00 24.04 Ю 3 20 км ясно +20.7 +19.0 90 +25 +25 комфорт 1012.6 1001.8 +18.2 +23.5
03 24.04 ЮЗ 2 20 км 8/0
[Ac trans]
+20.0 +19.1 95 +24 +24 комфорт 1013.6 1002.8
06 24.04 ЮВ 2 20 км 9/0
[Ac As]
+20.0 +19.1 95 +24 +24 комфорт 1013.2 1002.5
09 24.04 ЮВ 2 20 км 9/0
[Ac As Cs]
+19.6 +19.0 96 +23 +23 комфорт 1011.6 1000.9
12 24.04 Ю 1 6000 м дымка 9/0
[Ac As Cs]
+19.9 +19.3 96 +24 +25 комфорт 1013.6 1002.8 +19.3 +20.7
15 24.04 В 4 20 км 6/3 750 м
[Sc Ac As Cs]
+25.7 +21.5 78 +33 +38 очень
душно
1011.9 1001.2
18 24.04 В 5 20 км 8/5 750 м
[Sc Ac As]
+27.8 +26.1 90 +42 +43 опасность
перегрева
1009.4 998.8
21 24.04 З 4 20 км 8/6 750 м
[Cb calv Ac As]
+23.6 +21.8 90 +30 +30 очень
душно
1008.7 998.0
00 25.04 З 3 20 км гроза без осадков 10/10 210 м
[Cb cap]
+20.6 +20.0 96 +25 +25 комфорт 1010.4 999.7 +19.9 +28.7
03 25.04 З 2 20 км {гроза} 10/10 150 м
[]
+20.3 +19.8 97 +25 +25 комфорт 1011.7 1001.0
06 25.04 З 2 20 км {гроза} 10/10 150 м
[St]
+20.0 +19.5 97 +24 +24 комфорт 1010.9 1000.2
09 25.04 З 3 20 км 10/10 150 м
[St]
+19.1 +18.9 99 +21 +21 комфорт 1010.3 999.6
12 25.04 З 3 500 м туман 10/10 150 м
[St]
+18.0 +18.0 100 +18 +18 1012.1 1001.3 +18.0 +20.6
15 25.04 З 2 6000 м дымка {туман} 10/10 150 м
[St]
+18.3 +17.7 96 +19 +19 1012.8 1002.0
18 25.04 З 4 5000 м слаб. морось {туман} туман 10/10 210 м
[St]
+19.6 +17.8 89 +22 +22 комфорт 1011.1 1000.2 0.0
21 25.04 З 4 20 км {морось} 10/10 210 м
[St]
+19.4 +17.6 89 +22 +22 комфорт 1010.8 1000.0
00 26.04 З 3 20 км {морось} 10/5 300 м
[St Ac As]
+19.1 +17.5 90 +21 +21 комфорт 1012.2 1001.4 +18.0 +20.0 0.0
03 26.04 З 3 20 км в посл. час морось 10/10 210 м
[St]
+18.4 +17.3 93 +19 +19 1003.2 1002.4
06 26.04 З 2 20 км {морось} 10/10 210 м
[St]
+18.0 +17.2 95 +19 +19 1012.4 1001.6 0.0

 

Местоположение метеостанции Пресиденсиа-Роке-Саэнс-Пенья (Аргентина): широта -26.73 долгота -60.48 высота над уровнем моря 93 м.

В архиве по умолчанию представлена погода в Пресиденсиа-Роке-Саэнс-Пеньи за последнюю неделю. Архивные данные за месяц целиком и за предыдущие месяцы, начиная с января 2011 года, Вы можете получить, выбрав интересующий диапазон дат из раскрывающегося списка и нажав кнопку "Ввод!".


*Определитесь, кто Вы:
робот инопланетянин человек

Внимание! Время в таблицах - всемирное. Для получения местного времени необходимо прибавить поправку, которая равна -3 ч.

Смотрите также архив погоды в соседних городах и на ближайших метеорологических станциях:

Погода в Ресистенсии (Аргентина) (163 км)
Погода в Корриентесе (Аргентина) (188 км)
Погода в Пиларе (Парагвай) (216 км)
Погода в Лас-Ломитасе (Аргентина) (226 км)
Погода в Формосе (Аргентина) (232 км)
Погода в Грал Бругуез (Парагвай) (274 км)
Погода в Реконкисте (Аргентина) (283 км)
Погода в Сан Хуан Батистута (Парагвай) (331 км)
Погода в Асунсьоне (Парагвай) (339 км)
Погода в Куйкуйо (Парагвай) (353 км)

Пояснения к столбцам:

Ветер - указаны скорость ветра в м/с - средняя за 10 мин, порывы в срок и между сроками (в фигурных скобках) и направление, откуда дует ветер: С - северный, СВ - северо-восточный, В - восточный, ЮВ - юго-восточный, Ю - южный, ЮЗ - юго-западный, З - западный, СЗ - северо-западный.
Видимость - горизонтальная дальность видимости в метрах или километрах. При видимости от 1 до 10 км при отсутствии осадков обычно наблюдается дымка, при ухудшении видимости до 1 км и менее - туман. В сухую погоду видимость может ухудшаться дымом, пылью или мглою.
Явления - указаны атмосферные явления, наблюдавшиеся в срок или в последний час перед сроком; фигурными скобками обозначены явления, наблюдавшиеся между сроками (за 1-3 часа до срока); квадратными скобками обозначены град или гололедные отложения с указанием их диаметра в мм.
Облачность - указаны через наклонную черту общая и нижняя облачность в баллах и высота нижней границы облаков в метрах; квадратными скобками обозначены формы облаков: Ci - перистые, Cs - перисто-слоистые, Cc - перисто-кучевые, Ac - высококучевые, As - высокослоистые, Sc - слоисто-кучевые, Ns - слоисто-дождевые, Cu - кучевые, Cb - кучево-дождевые. Подробнее классификацию облаков см. в Атласе облаков (PDF).
T - Температура воздуха - температура, измеренная на высоте 2 м над землей.
Td - Температура точки росы - температура, при понижении до которой содержащийся в воздухе водяной пар достигнет насыщения.
f - Относительная влажность воздуха - влажноcть воздуха, измеренная на высоте 2 м над землей.
Te - Эффективная температура - температура, которую ощущает одетый по сезону человек в тени. Характеристика душности погоды. При расчете учитывается влияние влажности воздуха и скорости ветра на теплоощущения человека.
Tes - Эффективная температура на солнце - температура, которую ощущает человек, с поправкой на солнечный нагрев. Характеристика знойности погоды. Зависит от высоты солнца над горизонтом, облачности и скорости ветра. Ночью, в пасмурную погоду, а также при ветре 12 м/с и более поправка равна нулю.
P - Атмосферное давление - приведенное к уровню моря атмосферное давление.
Po - Атмосферное давление - измеренное на уровне метеостанции атмосферное давление.
Tmin - Минимальная температура - минимум температуры воздуха на высоте 2 м над землей.
Tmax - Максимальная температура - максимум температуры воздуха на высоте 2 м над землей.
R - Количество осадков - Количество выпавших осадков за период времени, мм. При наведении курсора мыши на число - период времени, за который выпало указанное количество осадков.
R24 - Количество осадков - Количество выпавших осадков за 24 часа, мм.
S - Снежный покров - Высота снежного покрова, см. При наведении курсора мыши на число - состояние снежного покрова и степень покрытия местности в баллах.